[[{"header":{"parameterUnit":"m.s-1","parameterCategory":1,"la1":30.2991,"la2":30.254,"lo1":-89.0895,"lo2":-89.0444,"dy":0.0017,"dx":0.0017,"nx":28,"ny":28,"refTime":"2025-12-20T09:00:00:Z","depth":0,"parameterNumber":2,"parameterNumberName":"U-component_of_WINDS"},"data":[0,0,0,0,0,0,0,0,0,0,0,0,0,0,0,0,0,0,0,0,0,0,0,0,0,0,0,0,0,0,0,0,0,0,0,0,0,0,0,0,0,0,0,0,0,0,0,0,0,0,0,0,0,0,0,0,0,0,-1.3154,-1.3154,0,-1.3141,-1.3141,-1.3141,-1.3105,-1.3104,-1.3103,-1.3102,-1.3091,-1.3091,-1.3091,0,0,0,0,0,0,0,0,0,0,0,0,0,-1.3148,-1.3148,-1.3154,-1.3154,-1.3154,-1.3141,-1.3141,-1.3141,-1.3105,-1.3104,-1.3103,-1.3102,-1.3091,-1.3091,-1.3092,0,0,0,0,0,0,0,0,0,0,0,0,0,-1.3145,-1.3149,-1.3154,-1.3134,-1.3132,-1.3141,-1.3141,-1.3141,-1.3105,-1.3104,-1.3103,-1.3102,-1.309,-1.3091,-1.3092,-1.3119,0,0,-1.3094,-1.3094,0,0,0,0,0,0,0,0,-1.3145,-1.3145,-1.3137,-1.3135,-1.3133,-1.3123,-1.3135,-1.3134,-1.3105,-1.3115,-1.3102,-1.3101,-1.3103,-1.3102,-1.3102,-1.3119,-1.3118,-1.3094,-1.3094,-1.3094,-1.3094,0,0,0,0,0,0,0,-1.3145,-1.3145,-1.3149,-1.3137,-1.3135,-1.3126,-1.3124,-1.3134,-1.3116,-1.3114,-1.3112,-1.3111,-1.3101,-1.3102,-1.3102,-1.3118,-1.3094,-1.3094,-1.3094,-1.3095,-1.3156,-1.3158,0,0,0,0,0,0,-1.3148,-1.3146,-1.3149,-1.3148,-1.3136,-1.3127,-1.3125,-1.3128,-1.3116,-1.3113,-1.3112,-1.3109,-1.3101,-1.3101,-1.3101,-1.3133,-1.3094,-1.3095,-1.3095,-1.3155,-1.3157,-1.3158,0,0,0,0,0,0,-1.3148,-1.3149,-1.315,-1.3146,-1.3146,-1.3129,-1.3132,-1.3128,-1.3129,-1.3113,-1.311,-1.3116,-1.31,-1.31,-1.3115,-1.3132,-1.3095,-1.3096,-1.3154,-1.3156,-1.3157,-1.3196,0,0,0,0,0,0,-1.3148,-1.3149,-1.3159,-1.3147,-1.3146,-1.3163,-1.3133,-1.3129,-1.313,-1.3126,-1.3116,-1.3114,-1.3099,-1.3114,-1.3116,-1.3132,-1.3096,-1.3152,-1.3155,-1.3157,-1.3193,-1.3199,-1.3204,0,0,0,0,0,-1.3148,-1.3171,-1.316,-1.316,-1.3158,-1.3164,-1.3164,-1.3147,-1.3131,-1.3141,-1.3132,-1.3114,-1.313,-1.3116,-1.3117,-1.3134,-1.3151,-1.3154,-1.3157,-1.3191,-1.3198,-1.3204,0,0,0,0,0,0,-1.3186,-1.3169,-1.3156,-1.3176,-1.3172,-1.3158,-1.3171,-1.3155,-1.3156,-1.3153,-1.3132,-1.313,-1.3148,-1.3142,-1.3127,-1.316,-1.3137,-1.3141,-1.3163,-1.317,-1.3175,-1.3176,-1.3097,0,0,0,0,0,-1.3196,-1.3202,-1.3187,-1.3206,-1.3204,-1.3188,-1.319,-1.3177,-1.3172,-1.3171,-1.3162,-1.3159,-1.3163,-1.3166,-1.3169,-1.3192,-1.319,-1.3205,-1.321,-1.3215,-1.3218,-1.323,-1.3237,-1.3167,-1.3167,-1.3167,0,0,-1.3218,-1.321,-1.3215,-1.3213,-1.3209,-1.3216,-1.3187,-1.3196,-1.3201,-1.3172,-1.3185,-1.3179,-1.3174,-1.3193,-1.3201,-1.3189,-1.3236,-1.3218,-1.3222,-1.3223,-1.3234,-1.324,-1.3246,-1.3169,-1.3169,-1.3169,0,0,-1.3262,-1.3256,-1.3271,-1.3267,-1.326,-1.3249,-1.3252,-1.3241,-1.3236,-1.3249,-1.3227,-1.3233,-1.3241,-1.3238,-1.3238,-1.328,-1.3264,-1.3282,-1.331,-1.3323,-1.3328,-1.3333,-1.3348,-1.3354,-1.3285,-1.3285,-1.3285,0,-1.329,-1.3299,-1.328,-1.329,-1.3291,-1.3265,-1.328,-1.3277,-1.3272,-1.3273,-1.3259,-1.3268,-1.3263,-1.3281,-1.3291,-1.3292,-1.3296,-1.3283,-1.3329,-1.3333,-1.3337,-1.3352,-1.3358,-1.3287,-1.3287,-1.3287,-1.3287,0,-1.3335,-1.3342,-1.3354,-1.335,-1.3351,-1.3364,-1.3347,-1.3351,-1.3338,-1.3329,-1.3342,-1.3335,-1.3336,-1.3339,-1.3327,-1.3356,-1.3349,-1.3332,-1.3309,-1.3347,-1.336,-1.3365,-1.3291,-1.329,-1.3289,-1.3289,0,0,-1.3402,-1.3386,-1.3391,-1.3389,-1.338,-1.3385,-1.3396,-1.3397,-1.3401,-1.3398,-1.3408,-1.3415,-1.34,-1.3399,-1.3386,-1.3397,-1.3432,-1.3379,-1.3379,-1.339,-1.3463,-1.3476,-1.3482,-1.3421,-1.3422,-1.3422,-1.3464,0,-1.3443,-1.3462,-1.3445,-1.3467,-1.3473,-1.3448,-1.3459,-1.3454,-1.3446,-1.345,-1.3441,-1.3446,-1.3426,-1.3425,-1.3435,-1.3425,-1.3446,-1.3422,-1.343,-1.343,-1.3432,-1.3489,-1.3502,-1.3541,-1.3469,-1.347,-1.347,0,-1.3494,-1.3493,-1.3516,-1.3505,-1.3507,-1.3516,-1.3516,-1.352,-1.3515,-1.3508,-1.3507,-1.3491,-1.3502,-1.3479,-1.3495,-1.3479,-1.3481,-1.3477,-1.3478,-1.3478,-1.3453,-1.3491,-1.3554,-1.356,-1.3478,-1.3478,-1.3477,0,-1.3541,-1.3546,-1.356,-1.3558,-1.3546,-1.3553,-1.3549,-1.3542,-1.3544,-1.3543,-1.3544,-1.3545,-1.3546,-1.3547,-1.3532,-1.3517,-1.3549,-1.3525,-1.3544,-1.3545,-1.3552,-1.3552,-1.3616,-1.3553,-1.3553,-1.3553,-1.3553,0,-1.3589,-1.3604,-1.358,-1.3589,-1.3605,-1.3586,-1.3602,-1.3595,-1.3589,-1.3597,-1.3576,-1.3583,-1.3562,-1.3568,-1.3556,-1.3571,-1.3571,-1.3566,-1.3563,-1.3568,-1.3569,-1.3569,-1.3566,-1.3555,-1.3554,-1.3554,-1.3554,0,-1.3644,-1.3629,-1.3643,-1.363,-1.3627,-1.364,-1.3629,-1.3636,-1.3626,-1.3636,-1.3637,-1.3621,-1.3626,-1.3612,-1.3614,-1.3607,-1.3628,-1.362,-1.3629,-1.3627,-1.3647,-1.3645,-1.3714,-1.3722,-1.3654,-1.3655,-1.3655,0,-1.3676,-1.3687,-1.3675,-1.3678,-1.3674,-1.3679,-1.3681,-1.3662,-1.3664,-1.3659,-1.3668,-1.3671,-1.3673,-1.3682,-1.3671,-1.3673,-1.3666,-1.3689,-1.3666,-1.3671,-1.3666,-1.3666,-1.3667,-1.3694,-1.3695,-1.3696,-1.3697,0,-1.3734,-1.3726,-1.3728,-1.3728,-1.373,-1.3729,-1.3727,-1.3731,-1.3711,-1.3715,-1.372,-1.3721,-1.3724,-1.3727,-1.3727,-1.3723,-1.3707,-1.3704,-1.3709,-1.3714,-1.3719,-1.3717,-1.3643,-1.3703,-1.3702,-1.3702,-1.3701,-1.3701,-1.3778,-1.3787,-1.378,-1.3783,-1.3779,-1.3778,-1.3784,-1.3775,-1.3778,-1.3779,-1.3768,-1.3775,-1.3769,-1.3767,-1.3765,-1.377,-1.3759,-1.3766,-1.3767,-1.3769,-1.3773,-1.3718,-1.377,-1.377,-1.377,-1.377,-1.3769,0,-1.3835,-1.3829,-1.3833,-1.383,-1.3833,-1.3817,-1.3814,-1.3817,-1.3823,-1.3819,-1.3821,-1.3827,-1.383,-1.382,-1.3822,-1.3828,-1.3821,-1.3829,-1.3829,-1.3828,-1.3782,-1.3778,-1.3835,-1.3835,-1.3835,-1.3835,-1.3835,-1.3835,-1.3865,-1.3878,-1.387,-1.3881,-1.3875,-1.3881,-1.3881,-1.388,-1.3876,-1.3883,-1.3886,-1.3879,-1.3872,-1.3873,-1.3876,-1.3873,-1.3874,-1.3886,-1.388,-1.3838,-1.3831,-1.3825,-1.3821,-1.3886,-1.3886,-1.3925,-1.3925,-1.3926]},{"header":{"parameterUnit":"m.s-1","parameterCategory":1,"la1":30.2991,"la2":30.254,"lo1":-89.0895,"lo2":-89.0444,"dy":0.0017,"dx":0.0017,"nx":28,"ny":28,"refTime":"2025-12-20T09:00:00:Z","depth":0,"parameterNumber":3,"parameterNumberName":"V-component_of_WINDS"},"data":[0,0,0,0,0,0,0,0,0,0,0,0,0,0,0,0,0,0,0,0,0,0,0,0,0,0,0,0,0,0,0,0,0,0,0,0,0,0,0,0,0,0,0,0,0,0,0,0,0,0,0,0,0,0,0,0,0,0,0.9974,0.9973,0,0.9908,0.9908,0.9907,0.9887,0.9888,0.9888,0.9888,0.9818,0.9815,0.9813,0,0,0,0,0,0,0,0,0,0,0,0,0,1.0079,1.0077,0.9974,0.9973,0.9972,0.9908,0.9908,0.9907,0.9887,0.9888,0.9888,0.9889,0.9818,0.9816,0.9813,0,0,0,0,0,0,0,0,0,0,0,0,0,1.0025,1.0076,0.9974,0.9955,0.9952,0.9909,0.9907,0.9906,0.9887,0.9888,0.9888,0.9889,0.9819,0.9816,0.9813,0.9782,0,0,0.9803,0.9801,0,0,0,0,0,0,0,0,1.0028,1.0021,0.9958,0.9956,0.9953,0.9907,0.9919,0.9864,0.9887,0.9912,0.9888,0.9889,0.9847,0.9841,0.9827,0.9778,0.9775,0.9802,0.98,0.9799,0.9798,0,0,0,0,0,0,0,1.0032,1.0024,0.9948,0.9958,0.9954,0.9949,0.9942,0.9908,0.9877,0.991,0.9908,0.9901,0.9845,0.9831,0.9826,0.9774,0.9802,0.9799,0.9797,0.9796,0.9697,0.9697,0,0,0,0,0,0,1.0039,1.0027,0.995,0.9946,0.9993,0.9946,0.9938,0.9921,0.9877,0.9871,0.9901,0.99,0.9836,0.983,0.9823,0.9784,0.9799,0.9796,0.9794,0.9698,0.9697,0.9696,0,0,0,0,0,0,1.0042,1.0033,0.9952,0.9986,0.9975,0.9944,0.9925,0.9919,0.9905,0.987,0.9864,0.9892,0.9836,0.9828,0.9793,0.9782,0.9794,0.9791,0.9699,0.9698,0.9697,0.9707,0,0,0,0,0,0,1.0045,1.0034,1.0022,0.9986,0.9974,0.9924,0.9924,0.9918,0.99,0.9899,0.986,0.9855,0.9836,0.9798,0.9789,0.9777,0.9789,0.9699,0.9698,0.9697,0.9707,0.9706,0.9705,0,0,0,0,0,1.0049,1.0026,1.0022,1.0012,0.9959,0.9923,0.9916,0.9896,0.9899,0.9887,0.9865,0.9856,0.9784,0.9794,0.9785,0.9772,0.97,0.9699,0.9697,0.9708,0.9706,0.9705,0,0,0,0,0,0,1.006,1.0021,1.0015,0.9981,0.9956,0.992,0.9904,0.9896,0.9868,0.9868,0.9843,0.9835,0.9802,0.9783,0.9795,0.974,0.9742,0.9738,0.9753,0.9752,0.9751,0.9756,0.9786,0,0,0,0,0,1.0059,1.0035,1.0001,0.9974,0.9962,0.9935,0.9919,0.9906,0.9879,0.9867,0.9843,0.9815,0.9787,0.9768,0.974,0.9705,0.9696,0.9691,0.969,0.9689,0.9687,0.9667,0.9665,0.9692,0.9692,0.9692,0,0,1.0056,1.0031,1.0017,0.9976,0.9955,0.9929,0.9926,0.9899,0.988,0.9863,0.9829,0.981,0.9777,0.9742,0.9726,0.9726,0.9677,0.9688,0.9687,0.9685,0.9665,0.9663,0.9661,0.9691,0.9691,0.9691,0,0,1.0037,1.0016,0.9992,0.9971,0.994,0.9923,0.9917,0.9883,0.987,0.9836,0.9823,0.9799,0.975,0.9728,0.971,0.9685,0.9675,0.9676,0.9671,0.9652,0.965,0.9648,0.9639,0.9636,0.9673,0.9673,0.9673,0,1.0036,0.9998,0.998,0.9954,0.9936,0.9922,0.9896,0.9877,0.9838,0.9825,0.9826,0.9766,0.9743,0.9703,0.9697,0.9683,0.9675,0.968,0.9652,0.965,0.9648,0.9639,0.9636,0.9674,0.9674,0.9674,0.9674,0,1.0,0.9974,0.9957,0.9922,0.9902,0.9877,0.9854,0.9836,0.9825,0.9808,0.9773,0.9745,0.9712,0.9701,0.9689,0.9659,0.9661,0.9657,0.9659,0.9646,0.9637,0.9634,0.9674,0.9674,0.9674,0.9674,0,0,0.9985,0.9941,0.9935,0.9919,0.9885,0.9864,0.9838,0.9806,0.9792,0.9765,0.9742,0.9702,0.9699,0.9679,0.9665,0.9649,0.9631,0.9647,0.9646,0.9645,0.9596,0.9599,0.9596,0.9625,0.9624,0.9624,0.9599,0,0.9962,0.9916,0.9899,0.9861,0.9837,0.9824,0.9801,0.9777,0.976,0.9736,0.9717,0.9689,0.9687,0.9675,0.9658,0.9637,0.9621,0.9638,0.9603,0.9602,0.9611,0.9591,0.9593,0.9572,0.9596,0.9595,0.9595,0,0.9928,0.9904,0.9864,0.9833,0.9823,0.9803,0.9773,0.9751,0.9723,0.9712,0.9691,0.9678,0.9649,0.9654,0.9614,0.9626,0.961,0.9598,0.9596,0.9592,0.9597,0.9586,0.9564,0.9561,0.9589,0.9589,0.959,0,0.9922,0.9879,0.985,0.9836,0.98,0.9786,0.977,0.9743,0.9726,0.97,0.9688,0.9658,0.9642,0.9619,0.9598,0.9603,0.956,0.9563,0.955,0.955,0.9541,0.9542,0.9516,0.9531,0.9531,0.9531,0.9531,0,0.9898,0.9874,0.9846,0.9828,0.9802,0.9782,0.9756,0.9738,0.9715,0.9693,0.9679,0.9658,0.9632,0.9608,0.9592,0.9561,0.9554,0.9544,0.9539,0.9545,0.9546,0.9534,0.9535,0.953,0.9531,0.9531,0.9531,0,0.9886,0.9866,0.9834,0.9803,0.9795,0.9776,0.9749,0.9731,0.9714,0.9686,0.9679,0.9652,0.9623,0.96,0.9562,0.9551,0.9519,0.9514,0.9528,0.9526,0.9515,0.9516,0.948,0.9475,0.9494,0.9494,0.9493,0,0.9871,0.9853,0.9821,0.9806,0.9791,0.9767,0.975,0.973,0.9712,0.968,0.9666,0.9636,0.9612,0.9565,0.9542,0.9512,0.9507,0.9497,0.9502,0.9509,0.9507,0.9508,0.9506,0.9496,0.9496,0.9495,0.9495,0,0.9848,0.984,0.9817,0.9791,0.9771,0.9749,0.9726,0.9714,0.969,0.9671,0.9643,0.9624,0.9585,0.9556,0.9525,0.9507,0.9497,0.9494,0.9489,0.9495,0.9504,0.9499,0.9526,0.9495,0.9495,0.9495,0.9495,0.9495,0.9835,0.9818,0.9794,0.9768,0.975,0.9729,0.9711,0.9693,0.9669,0.9638,0.9627,0.9598,0.9571,0.9528,0.951,0.9486,0.9485,0.9478,0.9477,0.9475,0.9476,0.9508,0.948,0.948,0.948,0.948,0.948,0,0.9811,0.9795,0.9772,0.9742,0.9722,0.9717,0.9692,0.9675,0.965,0.9626,0.9603,0.957,0.9542,0.9516,0.9487,0.9472,0.9467,0.9465,0.9466,0.9462,0.9478,0.9485,0.947,0.947,0.947,0.947,0.947,0.947,0.9797,0.9769,0.9758,0.9721,0.9704,0.9677,0.9663,0.9644,0.9625,0.959,0.9567,0.9551,0.9527,0.9496,0.9469,0.9463,0.9452,0.9452,0.9444,0.9459,0.946,0.9462,0.9468,0.945,0.9449,0.9429,0.9429,0.9429]}]]